Terug naar catalogus

THOR ABLESTAR DEB

ActiefLEO
NORAD 329·DEBRIS·🇺🇸 United States

Gelanceerd Jun 29, 1961 vanaf Cape Canaveral Space Force Station

Loading…

Volgende Passages (komende 24 uur)

TLE

VersSource: Space-Track

Epoch: Sep 14, 2026, 03:46 UTC

1 00329U 61015DF  26257.15694781  .00000030  00000-0  11858-3 0  9999
2 00329  66.7807 165.9109 0120315 294.4095 214.8384 13.66146827242165

Volg THOR ABLESTAR DEB in realtime met AllMySat

Download on the App Store